Regional Weather Roundup
Issued by NWS Little Rock, AR

Home | Current Version | Previous Version | Text Only | Print | Product List | Glossary Off
Versions: 1 2 3 4 5 6 7 8 9 10 11 12 13 14 15 16 17 18 19 20 21 22 23 24 25 26 27 28

000
ASUS44 KLZK 222105
RWRLZK

WEATHER ROUNDUP FOR ARKANSAS
NATIONAL WEATHER SERVICE LITTLE ROCK AR
400 PM CDT WED OCT 22 2014

NOTE: "FAIR" INDICATES FEW OR NO CLOUDS BELOW 12,000 FEET WITH NO
SIGNIFICANT WEATHER AND/OR OBSTRUCTIONS TO VISIBILITY.

ARZ001-003-010-029-222200-
NORTHWEST ARKANSAS

CITY           SKY/WX    TMP DP  RH WIND       PRES   REMARKS
FAYETTEVILLE   MOSUNNY   72  53  51 S5        30.13F
FORT SMITH     SUNNY     75  51  43 E10       30.12F
HARRISON       SUNNY     69  50  50 SE9       30.17F
BENTONVILLE    PTSUNNY   73  54  49 E6        30.15S
ROGERS         MOSUNNY   72  54  53 E5        30.15F
SILOAM SPGS    PTSUNNY   75  54  46 S8        30.14F
HIGHFILL       MOSUNNY   73  55  53 SE6       30.13F
SPRINGDALE     MOSUNNY   73  55  53 SE8       30.15F
$$

ARZ004-005-016-222200-
NORTH CENTRAL ARKANSAS

CITY           SKY/WX    TMP DP  RH WIND       PRES   REMARKS
BATESVILLE     SUNNY     70  45  40 E8        30.19S
FLIPPIN        SUNNY     70  46  43 E6        30.19S
MTN HOME       SUNNY     67  47  48 SE7       30.18F
$$

ARZ040-041-222200-
WEST CENTRAL ARKANSAS

CITY           SKY/WX    TMP DP  RH WIND       PRES   REMARKS
MENA           SUNNY     75  55  50 CALM      30.14S
MOUNT IDA      SUNNY     73  52  47 VRB3      30.13F
$$

ARZ009-017-025-026-028-222200-
NORTHEAST ARKANSAS

CITY           SKY/WX    TMP DP  RH WIND       PRES   REMARKS
CORNING        FAIR      66  45  45 E9        30.21F
JONESBORO      SUNNY     67  41  38 NE12      30.19F
NEWPORT        LGT RAIN  67  43  41 NE10G17   30.20F
WALNUT RIDGE   SUNNY     66  39  37 E10       30.20F
BLYTHEVILLE    SUNNY     69  44  40 NE7       30.20F
NW BLYTHEVILLE SUNNY     66  43  42 NE7       30.20
$$

ARZ022-023-033-042-044-222200-
CENTRAL ARKANSAS

CITY           SKY/WX    TMP DP  RH WIND       PRES   REMARKS
LITTLE ROCK    SUNNY     72  47  40 NE10      30.17F
N LITTLE ROCK  SUNNY     71  53  52 NE9       30.17F
JACKSONVILLE   SUNNY     70  48  45 VRB6      30.17F
SEARCY         SUNNY     69  46  43 E7        30.20R
HOT SPRINGS    SUNNY     72  50  45 NE6       30.15F
RUSSELLVILLE   SUNNY     72  50  45 CALM      30.16F
$$

ARZ036-222200-
EAST ARKANSAS

CITY           SKY/WX    TMP DP  RH WIND       PRES   REMARKS
WEST MEMPHIS   SUNNY     68  43  40 NE12      30.17F
$$

ARZ050-053-066-070-073-222200-
SOUTHWEST ARKANSAS

CITY           SKY/WX    TMP DP  RH WIND       PRES   REMARKS
ARKADELPHIA    FAIR      74  55  51 NE5       30.15F
CAMDEN         SUNNY     75  48  38 N8        30.14F
TEXARKANA      SUNNY     75  51  43 VRB6      30.12F
EL DORADO      SUNNY     74  49  41 NE12      30.13F
DE QUEEN       SUNNY     75  53  46 E10       30.10F
$$

ARZ056-057-069-222200-
SOUTHEAST ARKANSAS

CITY           SKY/WX    TMP DP  RH WIND       PRES   REMARKS
PINE BLUFF     SUNNY     71  47  42 NE10      30.16S
STUTTGART      SUNNY     70  45  40 N12       30.17F
MONTICELLO     SUNNY     73  49  42 NE8       30.14F

$$





USA.gov is the U.S. government's official web portal to all federal, state and local government web resources and services.